Voltar ao catálogo

COMSTAR 3

AtivoComunicaçõesGEO
NORAD 10975·PAYLOAD·🇺🇸 United States

Lançado Jun 29, 1978 de Cape Canaveral Space Force Station

Loading…

TLE

AtualizadoSource: Space-Track

Época: Sep 14, 2026, 12:48 UTC

1 10975U 78068A   26257.53376463 -.00000289  00000-0  00000-0 0  9990
2 10975   9.3566 314.6496 0023418 319.3491  68.6623  0.99201788 47088

Acompanhe COMSTAR 3 em tempo real com AllMySat

Download on the App Store